Simultaneous Nadir Overpasses (SNOs) Predictions

Prediction of SNOs near equator between AQUA and NPP Satellite Orbit:

Table of predicted SNOs near equator for the next 14.0 days since TLE Epoch: 12/14/2018
Index Date (AQUA) Time (AQUA) AQUA Lat,Lon Date (NPP) Time (NPP) NPP Lat,Lon Distance(km) Time Diff (sec)
1 12/16/2018 00:08:35 -3.74, 21.20 12/15/2018 23:59:16 -3.69, 20.88 35.78 559
2 12/16/2018 00:56:49 -0.87,-170.20 12/16/2018 00:48:46 -0.98,-170.78 66.15 483
3 12/16/2018 01:44:58 5.33, -1.59 12/16/2018 01:38:09 5.53, -2.43 95.54 409
4 12/18/2018 15:42:05 26.83, -35.80 12/18/2018 15:32:05 26.86, -36.19 39.14 600
5 12/18/2018 16:24:41 -2.29, 137.39 12/18/2018 16:15:46 -2.23, 136.98 45.91 535
6 12/18/2018 17:12:56 -2.27, -54.02 12/18/2018 17:05:16 -2.44, -54.69 76.15 460
7 12/21/2018 07:52:39 5.36, 84.95 12/21/2018 07:42:53 5.33, 84.72 26.04 586
8 12/21/2018 08:40:48 -0.91,-106.44 12/21/2018 08:32:16 -0.77,-106.93 56.02 512
9 12/21/2018 09:29:02 -3.71, 62.16 12/21/2018 09:21:46 -3.89, 61.41 86.04 436
10 12/24/2018 00:08:45 3.92,-158.86 12/23/2018 23:59:23 3.88,-159.18 36.16 562
11 12/24/2018 00:56:54 0.53, 9.74 12/24/2018 00:48:46 0.68, 9.17 66.12 488
12 12/24/2018 01:45:08 -5.15, 178.35 12/24/2018 01:38:16 -5.35, 177.51 95.89 412
13 12/26/2018 15:42:56 -29.99, 143.40 12/26/2018 15:32:56 -30.16, 142.93 48.78 600
14 12/26/2018 16:24:50 2.48, -42.68 12/26/2018 16:15:52 2.43, -43.09 46.29 538
15 12/26/2018 17:12:58 2.02, 125.94 12/26/2018 17:05:15 2.14, 125.26 76.22 463




NCC Satellite Simultaneous Nadir Overpasses (SNOs) Prediction Service
